カタログに戻る

ATLAS 5 CENTAUR DEB

運用中HEO
NORAD 46608·DEBRIS·🇺🇸 United States

打ち上げ Oct 17, 2018 から Cape Canaveral Space Force Station

Loading…

次のパス (今後24時間)

TLE

最新Source: Space-Track

元期: Sep 11, 2026, 19:32 UTC

1 46608U 18079CG  26254.81421598 -.00000167  00000-0  00000-0 0  9991
2 46608  13.6015  31.4456 4674434 317.7287  14.3633  1.79356780 31822

AllMySatでATLAS 5 CENTAUR DEBをリアルタイム追跡

Download on the App Store